Location: Hall+in+Tirol
(47.2830°N, 11.5170°E)
Time: 12:54:10
(UTC+01:00)

Amateur Radio Satellites - All Passes

Search period start: 05 March 2015 12:24
Search period end: 06 March 2015 12:24
Location: Hall+in+Tirol, 47.2830°N, 11.5170°E

Satellite Date Start Highest point End Downlink Frequencies (MHz)
Time Altitude Azimuth
TISAT 1 05 Mar 12:24:14 12:28:22 51° 100° (E) 12:32:28 437.305
UKube-1 05 Mar 12:27:19 12:28:28 11° 303° (WNW) 12:29:24 .
SPROUT 05 Mar 12:29:49 12:34:07 66° 101° (ESE) 12:38:22 437.525
AO-7 05 Mar 12:47:22 12:52:09 17° 41° (NE) 12:57:13 29.400- 29.500
ESTCUBE 1 05 Mar 12:48:30 12:52:15 25° 295° (WNW) 12:55:55 437.505/2401.250
Gurwin Techsat 1B 05 Mar 12:54:05 12:58:40 31° 64° (ENE) 13:03:20 435.225
Oscar 19 05 Mar 13:01:04 13:06:12 72° 258° (WSW) 13:11:21 437.125/150
ITAMSAT 1 05 Mar 13:05:30 13:10:29 49° 69° (ENE) 13:15:33 435.822/435.867
SWISSCUBE 05 Mar 13:16:22 13:20:43 33° 96° (E) 13:25:03 437.505
BEESAT 05 Mar 13:24:26 13:28:51 36° 96° (E) 13:33:17 436.000
ISS 05 Mar 13:39:58 13:43:12 81° 209° (SSW) 13:46:27 145.825
ITUPSAT 1 05 Mar 13:53:21 13:58:10 66° 102° (ESE) 14:02:58 437.325
HORYU 2 05 Mar 13:57:48 14:01:36 29° 66° (ENE) 14:05:27 437.375
TISAT 1 05 Mar 14:00:52 14:03:51 19° 297° (WNW) 14:06:44 437.305
SPROUT 05 Mar 14:07:11 14:09:46 15° 299° (WNW) 14:12:13 437.525
JAS-2 05 Mar 14:08:52 14:12:49 19° 54° (NE) 14:17:16 435.910
KKS-1 05 Mar 14:28:26 14:32:23 31° 95° (E) 14:36:22 437.445
STARS 05 Mar 14:28:47 14:32:06 21° 92° (E) 14:35:31 437.465
Gurwin Techsat 1B 05 Mar 14:33:29 14:38:32 42° 263° (W) 14:43:35 435.225
AO-7 05 Mar 14:35:19 14:43:24 58° 63° (ENE) 14:51:31 29.400- 29.500
ITAMSAT 1 05 Mar 14:45:56 14:50:17 25° 268° (W) 14:54:34 435.822/435.867
YUBILEINY 05 Mar 14:48:52 14:55:53 29° 82° (E) 15:03:10 435.215
SWISSCUBE 05 Mar 14:54:15 14:58:35 33° 294° (WNW) 15:02:52 437.505
BEESAT 05 Mar 15:02:25 15:06:39 31° 294° (WNW) 15:10:48 436.000
ISS 05 Mar 15:17:20 15:19:15 15° 224° (SW) 15:21:06 145.825
ITUPSAT 1 05 Mar 15:32:16 15:35:39 19° 300° (WNW) 15:38:53 437.325
HORYU 2 05 Mar 15:34:12 15:38:13 33° 264° (W) 15:42:13 437.375
BEESAT 2 05 Mar 15:50:23 15:52:18 13° 111° (ESE) 15:54:25 435.950
JAS-2 05 Mar 15:51:22 15:57:02 87° 255° (WSW) 16:03:31 435.910
AUBIESAT-1 05 Mar 15:58:51 16:01:14 15° 95° (E) 16:03:53 437.475
M-CUBED/EXP-1 PRIME 05 Mar 15:59:05 16:01:47 16° 96° (E) 16:04:45 437.505
MOZHAYETS 4 05 Mar 16:00:32 16:03:35 18° 89° (E) 16:06:47
STARS 05 Mar 16:04:38 16:08:49 43° 290° (WNW) 16:12:57 437.465
KKS-1 05 Mar 16:05:07 16:09:02 30° 293° (WNW) 16:12:52 437.445
AO-7 05 Mar 16:28:56 16:36:36 38° 264° (W) 16:44:09 29.400- 29.500
YUBILEINY 05 Mar 16:43:19 16:52:04 70° 283° (WNW) 17:00:53 435.215
VERMONT LUNAR 05 Mar 16:45:30 16:47:39 16° 160° (SSE) 16:49:50 437.305
Cubesat XI-IV 05 Mar 16:54:21 16:59:21 42° 67° (ENE) 17:04:27 437.490
BEESAT 3 05 Mar 16:57:02 17:01:06 66° 124° (SE) 17:05:15 437.485
CUTE-I 05 Mar 17:02:19 17:07:26 48° 69° (ENE) 17:12:38 437.470
PHONESAT 2.4 05 Mar 17:10:25 17:12:20 14° 157° (SSE) 17:14:19 2401.200-2431.200
BEESAT 2 05 Mar 17:25:49 17:29:58 78° 308° (NW) 17:34:10 435.950
AUBIESAT-1 05 Mar 17:32:14 17:36:29 70° 291° (WNW) 17:41:04 437.475
M-CUBED/EXP-1 PRIME 05 Mar 17:32:49 17:37:02 63° 293° (WNW) 17:41:33 437.505
MOZHAYETS 4 05 Mar 17:36:40 17:41:16 58° 287° (WNW) 17:45:49
PRISM 05 Mar 17:38:53 17:40:42 13° 88° (E) 17:42:42 437.425
AIST 1 05 Mar 17:39:03 17:43:24 53° 77° (ENE) 17:47:43
AIST 2 05 Mar 17:39:30 17:43:41 60° 123° (ESE) 17:47:57 435.215
JAS-2 05 Mar 17:40:18 17:43:29 14° 280° (W) 17:46:31 435.910
STRAND 1 05 Mar 17:47:27 17:48:56 11° 84° (E) 17:50:43 437.568
O/OREOS (USA 219) 05 Mar 17:56:12 18:00:38 45° 58° (ENE) 18:05:02 437.305
CUBESAT XI-V 05 Mar 18:07:06 18:11:07 28° 93° (E) 18:15:10 437.345
BRITE-PL 05 Mar 18:10:21 18:13:09 15° 59° (ENE) 18:16:04 437.365/2234.400
VERMONT LUNAR 05 Mar 18:21:57 18:24:56 26° 176° (S) 18:27:56 437.305
HO-68 05 Mar 18:32:34 18:38:18 28° 56° (NE) 18:44:12 435.675
Cubesat XI-IV 05 Mar 18:34:51 18:39:37 31° 266° (W) 18:44:21 437.490
BEESAT 3 05 Mar 18:36:22 18:39:37 21° 324° (NW) 18:42:50 437.485
CUTE-I 05 Mar 18:43:14 18:47:48 27° 267° (W) 18:52:17 437.470
PCSat 05 Mar 18:43:23 18:44:04 10° 103° (ESE) 18:45:07 145.827
YUBILEINY 05 Mar 18:45:12 18:50:58 18° 309° (NW) 18:56:24 435.215
PHONESAT 2.4 05 Mar 18:47:02 18:50:08 26° 173° (S) 18:53:14 2401.200-2431.200
AAUSAT CUBESAT 2 05 Mar 19:03:53 19:05:31 12° 60° (ENE) 19:07:19 437.432
BEESAT 2 05 Mar 19:06:08 19:08:51 16° 329° (NNW) 19:11:31 435.950
COMPASS 1 05 Mar 19:08:03 19:10:25 15° 62° (ENE) 19:12:55 437.405
AUBIESAT-1 05 Mar 19:09:36 19:10:47 11° 307° (NW) 19:11:47 437.475
PRISM 05 Mar 19:12:31 19:16:45 70° 287° (WNW) 19:20:57 437.425
AIST 1 05 Mar 19:17:50 19:20:40 16° 274° (W) 19:23:21
AIST 2 05 Mar 19:19:08 19:22:40 24° 323° (NW) 19:26:11 435.215
STRAND 1 05 Mar 19:23:54 19:29:06 82° 103° (ESE) 19:34:15 437.568
GOMX 1 05 Mar 19:35:23 19:40:25 48° 71° (ENE) 19:45:13 467.674
O/OREOS (USA 219) 05 Mar 19:36:09 19:39:50 23° 256° (WSW) 19:43:23 437.305
SEEDS 05 Mar 19:38:18 19:42:04 34° 69° (ENE) 19:45:54 437.485
CINEMA 3 05 Mar 19:43:01 19:46:33 22° 65° (ENE) 19:50:04 145.822/145.860
CUBESAT XI-V 05 Mar 19:44:18 19:48:41 38° 292° (WNW) 19:53:00 437.345
CUBEBUG 2 05 Mar 19:44:59 19:47:04 14° 61° (ENE) 19:49:17 437.445
BRITE-PL 05 Mar 19:45:26 19:51:02 81° 77° (ENE) 19:56:20 437.365/2234.400
CANX-2 05 Mar 19:46:03 19:50:09 53° 72° (ENE) 19:54:17 2200.000
DX 1 05 Mar 19:48:44 19:49:40 11° 57° (ENE) 19:50:49 434.975-435.025
DELFI C3 05 Mar 19:52:48 19:55:05 15° 62° (ENE) 19:57:30 145.870
DOVE 4 05 Mar 19:55:59 20:00:51 51° 72° (ENE) 20:05:30 437.250
VERMONT LUNAR 05 Mar 19:59:34 20:02:18 21° 193° (SSW) 20:05:01 437.305
CUTE 1.7 + AOD 2 05 Mar 20:04:05 20:08:17 75° 75° (ENE) 20:12:31 437.475
FUNcube-1 05 Mar 20:08:31 20:10:57 15° 62° (ENE) 20:13:31 145.935
ZACube-1 05 Mar 20:10:43 20:13:20 16° 63° (ENE) 20:16:03 437.345
UKube-1 05 Mar 20:12:21 20:15:05 17° 61° (ENE) 20:17:57 .
HO-68 05 Mar 20:18:21 20:25:30 73° 255° (WSW) 20:32:42 435.675
PCSat 05 Mar 20:21:14 20:26:36 68° 120° (ESE) 20:32:02 145.827
PHONESAT 2.4 05 Mar 20:25:02 20:28:03 24° 190° (S) 20:31:04 2401.200-2431.200
UWE-3 05 Mar 20:35:23 20:39:16 33° 69° (ENE) 20:43:07 435.000/436.395/437.385
AAUSAT CUBESAT 2 05 Mar 20:36:28 20:40:37 80° 256° (WSW) 20:44:48 437.432
COMPASS 1 05 Mar 20:41:35 20:45:42 62° 259° (W) 20:49:52 437.405
50 SAT 05 Mar 20:50:18 20:52:28 15° 63° (ENE) 20:54:48 437.505
Oscar 11 05 Mar 20:51:20 20:55:37 74° 75° (ENE) 20:59:56 145.826/435.025
GONETS M04 05 Mar 20:57:04 21:04:53 41° 87° (E) 21:12:52
STRAND 1 05 Mar 21:04:24 21:07:43 17° 302° (WNW) 21:10:52 437.568
GOMX 1 05 Mar 21:14:21 21:18:45 26° 268° (W) 21:22:53 467.674
SEEDS 05 Mar 21:14:32 21:18:00 24° 267° (W) 21:21:25 437.485
CUBEBUG 2 05 Mar 21:18:50 21:23:18 78° 257° (WSW) 21:27:38 437.445
CINEMA 3 05 Mar 21:19:01 21:23:34 47° 261° (W) 21:27:55 145.822/145.860
DX 1 05 Mar 21:20:51 21:25:14 77° 74° (ENE) 21:29:39 434.975-435.025
CANX-2 05 Mar 21:23:44 21:26:29 16° 271° (W) 21:29:05 2200.000
HUMSAT D 05 Mar 21:23:53 21:27:51 44° 71° (ENE) 21:31:49 437.325/437.525
DELFI C3 05 Mar 21:25:54 21:29:53 59° 259° (W) 21:33:54 145.870
BRITE-PL 05 Mar 21:26:40 21:30:09 16° 273° (W) 21:33:20 437.365/2234.400
CUBEBUG 1 05 Mar 21:32:22 21:35:40 21° 64° (ENE) 21:39:05 437.445
DOVE 4 05 Mar 21:34:58 21:38:54 22° 269° (W) 21:42:35 437.250
AISAT 05 Mar 21:38:30 21:42:51 51° 71° (ENE) 21:47:14 437.250
FUNcube-1 05 Mar 21:42:36 21:46:54 65° 258° (WSW) 21:51:08 145.935
CUTE 1.7 + AOD 2 05 Mar 21:43:15 21:44:51 12° 274° (W) 21:46:12 437.475
ZACube-1 05 Mar 21:45:03 21:49:21 60° 259° (W) 21:53:34 437.345
RS-15 05 Mar 21:46:21 21:54:59 30° 106° (ESE) 22:04:04 29.354- 29.394
VELOX 1 05 Mar 21:46:26 21:50:50 59° 72° (ENE) 21:55:17 145.980
UKube-1 05 Mar 21:46:31 21:50:50 62° 258° (WSW) 21:55:11 .
SPROUT 05 Mar 21:55:27 21:55:47 10° 57° (ENE) 21:56:20 437.525
QB50P1 05 Mar 22:02:50 22:03:48 11° 86° (E) 22:04:59 145.935-145.965
PHONESAT 2.4 05 Mar 22:04:34 22:05:47 11° 206° (SSW) 22:06:57 2401.200-2431.200
PCSat 05 Mar 22:05:56 22:10:32 27° 321° (NW) 22:15:07 145.827
QB50P2 05 Mar 22:07:09 22:08:52 12° 87° (E) 22:10:48 145.880/145.840
HO-68 05 Mar 22:10:52 22:14:40 14° 277° (W) 22:18:03 435.675
UWE-3 05 Mar 22:12:05 22:15:52 27° 266° (W) 22:19:32 435.000/436.395/437.385
ESTCUBE 1 05 Mar 22:13:50 22:18:16 56° 72° (ENE) 22:22:45 437.505/2401.250
DUCHIFAT 1 05 Mar 22:18:45 22:21:19 16° 89° (E) 22:24:00 145.980
UNISAT 6 05 Mar 22:18:55 22:22:40 29° 95° (E) 22:26:29 437.425
50 SAT 05 Mar 22:23:11 22:27:06 58° 260° (W) 22:31:01 437.505
Oscar 11 05 Mar 22:30:32 22:32:25 12° 274° (W) 22:34:06 145.826/435.025
POPSAT HIP 1 05 Mar 22:40:52 22:44:28 27° 94° (E) 22:48:05 437.405
POLYITAN 1 05 Mar 22:41:57 22:45:36 28° 94° (E) 22:49:16 437.675
TIGRISAT 05 Mar 22:42:11 22:46:20 48° 99° (E) 22:50:33 435.000
GONETS M04 05 Mar 22:53:13 23:01:39 51° 289° (WNW) 23:10:04
DANDE 05 Mar 22:55:42 23:00:18 23° 95° (E) 23:04:09 436.750
ANTELSAT 05 Mar 22:57:29 23:01:48 72° 102° (ESE) 23:06:09 437.575/2403.000
DX 1 05 Mar 23:00:13 23:02:08 12° 273° (W) 23:03:49 434.975-435.025
HUMSAT D 05 Mar 23:00:53 23:03:54 19° 269° (W) 23:06:49 437.325/437.525
NANOSAT C BR1 05 Mar 23:02:28 23:06:32 44° 98° (E) 23:10:35 145.865
CUSAT 1 05 Mar 23:06:26 23:11:21 32° 97° (E) 23:15:15 437.405
CUBEBUG 1 05 Mar 23:07:27 23:11:46 48° 261° (W) 23:16:07 437.445
AISAT 05 Mar 23:16:30 23:19:49 19° 270° (W) 23:22:59 437.250
TISAT 1 05 Mar 23:19:25 23:23:37 58° 73° (ENE) 23:27:50 437.305
VELOX 1 05 Mar 23:24:55 23:27:52 17° 271° (W) 23:30:40 145.980
SPROUT 05 Mar 23:26:51 23:31:12 76° 74° (ENE) 23:35:33 437.525
ITUPSAT 1 05 Mar 23:27:54 23:30:43 16° 59° (ENE) 23:33:42 437.325
BUGSAT 1 05 Mar 23:29:45 23:33:54 66° 101° (ESE) 23:37:59 437.445
BEESAT 3 05 Mar 23:36:00 23:39:07 20° 34° (NE) 23:42:15 437.485
QB50P1 05 Mar 23:36:06 23:40:22 80° 285° (WNW) 23:44:34 145.935-145.965
QB50P2 05 Mar 23:41:08 23:45:22 70° 286° (WNW) 23:49:33 145.880/145.840
ESTCUBE 1 05 Mar 23:52:24 23:55:33 18° 271° (W) 23:58:35 437.505/2401.250
DUCHIFAT 1 05 Mar 23:53:25 23:57:34 54° 288° (WNW) 00:01:38 145.980
PCSat 05 Mar 23:54:48 23:55:57 11° 346° (NNW) 23:57:01 145.827
RS-15 05 Mar 23:55:18 00:06:14 84° 309° (NW) 00:17:27 29.354- 29.394
UNISAT 6 05 Mar 23:55:40 23:59:29 31° 292° (WNW) 00:03:17 437.425
BEESAT 2 06 Mar 00:04:58 00:08:34 27° 40° (NE) 00:12:11 435.950
SO-50 06 Mar 00:06:07 00:08:57 17° 111° (ESE) 00:11:59 436.795
POPSAT HIP 1 06 Mar 00:16:37 00:20:24 32° 292° (WNW) 00:24:08 437.405
POLYITAN 1 06 Mar 00:17:48 00:21:33 31° 293° (WNW) 00:25:14 437.675
TIGRISAT 06 Mar 00:19:41 00:22:50 20° 296° (WNW) 00:25:55 435.000
AIST 2 06 Mar 00:20:34 00:23:47 20° 34° (NE) 00:27:01 435.215
SWISSCUBE 06 Mar 00:25:55 00:30:35 53° 70° (ENE) 00:35:17 437.505
BEESAT 06 Mar 00:33:54 00:38:35 58° 72° (ENE) 00:43:19 436.000
ANTELSAT 06 Mar 00:35:45 00:38:09 14° 299° (WNW) 00:40:25 437.575/2403.000
DANDE 06 Mar 00:37:40 00:43:36 49° 284° (WNW) 00:48:01 436.750
NANOSAT C BR1 06 Mar 00:38:59 00:42:09 20° 296° (WNW) 00:45:14 145.865
CUSAT 1 06 Mar 00:49:24 00:54:12 30° 287° (WNW) 00:57:54 437.405
YUBILEINY 06 Mar 00:53:58 00:59:30 18° 52° (NE) 01:05:23 435.215
TISAT 1 06 Mar 00:57:13 00:59:52 15° 271° (W) 01:02:22 437.305
GONETS M04 06 Mar 00:57:45 01:01:19 12° 316° (NW) 01:04:23
ITUPSAT 1 06 Mar 01:03:17 01:08:05 78° 257° (WSW) 01:12:55 437.325
SPROUT 06 Mar 01:06:02 01:07:54 12° 274° (W) 01:09:34 437.525
BUGSAT 1 06 Mar 01:06:34 01:08:56 15° 299° (WNW) 01:11:10 437.445
Oscar 19 06 Mar 01:09:40 01:14:12 32° 95° (E) 01:18:48 437.125/150
BEESAT 3 06 Mar 01:13:32 01:17:41 74° 235° (SW) 01:21:46 437.485
QB50P1 06 Mar 01:14:50 01:15:35 10° 302° (WNW) 01:16:08 145.935-145.965
ITAMSAT 1 06 Mar 01:16:53 01:19:11 13° 85° (E) 01:21:45 435.822/435.867
STARS 06 Mar 01:28:46 01:32:33 29° 66° (ENE) 01:36:24 437.465
KKS-1 06 Mar 01:29:33 01:33:46 43° 70° (ENE) 01:38:02 437.445
PCSat 06 Mar 01:41:49 01:42:03 10° 12° (NNE) 01:42:21 145.827
BEESAT 2 06 Mar 01:42:56 01:46:55 44° 240° (WSW) 01:50:51 435.950
SO-50 06 Mar 01:44:18 01:48:57 76° 309° (NW) 01:53:47 436.795
AIST 2 06 Mar 01:58:37 02:02:55 78° 235° (SW) 02:07:08 435.215
SWISSCUBE 06 Mar 02:05:13 02:08:49 20° 269° (W) 02:12:19 437.505
RS-15 06 Mar 02:10:20 02:20:24 38° 338° (NNW) 02:30:42 29.354- 29.394
BEESAT 06 Mar 02:13:30 02:16:53 18° 270° (W) 02:20:08 436.000
AO-7 06 Mar 02:36:00 02:39:07 13° 81° (E) 02:42:53 29.400- 29.500
Gurwin Techsat 1B 06 Mar 02:46:01 02:51:19 61° 101° (E) 02:56:35 435.225
Oscar 19 06 Mar 02:48:55 02:53:39 38° 293° (WNW) 02:58:20 437.125/150
YUBILEINY 06 Mar 02:49:31 02:58:22 71° 77° (ENE) 03:07:12 435.215
AUBIESAT-1 06 Mar 02:50:31 02:53:18 24° 61° (ENE) 02:56:17 437.475
M-CUBED/EXP-1 PRIME 06 Mar 02:51:19 02:54:14 27° 62° (ENE) 02:57:20 437.505
ITAMSAT 1 06 Mar 02:54:17 02:59:33 90° 360° (N) 03:04:47 435.822/435.867
JAS-2 06 Mar 02:57:49 03:01:48 15° 81° (E) 03:06:19 435.910
STARS 06 Mar 03:04:57 03:08:59 33° 264° (W) 03:12:59 437.465
MOZHAYETS 4 06 Mar 03:05:35 03:09:12 24° 65° (ENE) 03:12:56
KKS-1 06 Mar 03:07:05 03:10:38 22° 268° (W) 03:14:07 437.445
HORYU 2 06 Mar 03:21:58 03:26:07 36° 97° (E) 03:30:15 437.375
PCSat 06 Mar 03:23:10 03:27:33 24° 37° (NE) 03:31:59 145.827
SO-50 06 Mar 03:26:53 03:30:20 19° 332° (NNW) 03:33:48 436.795
AUBIESAT-1 06 Mar 04:25:20 04:28:12 25° 260° (W) 04:31:09 437.475
AO-7 06 Mar 04:25:40 04:33:55 64° 104° (ESE) 04:42:08 29.400- 29.500
M-CUBED/EXP-1 PRIME 06 Mar 04:26:35 04:29:17 21° 261° (W) 04:32:01 437.505
RS-15 06 Mar 04:26:48 04:36:35 34° 12° (NNE) 04:46:48 29.354- 29.394
Gurwin Techsat 1B 06 Mar 04:26:48 04:30:55 23° 299° (WNW) 04:34:55 435.225
PRISM 06 Mar 04:32:25 04:34:53 16° 61° (ENE) 04:37:30 437.425
ITAMSAT 1 06 Mar 04:35:17 04:38:24 16° 303° (WNW) 04:41:21 435.822/435.867
JAS-2 06 Mar 04:40:41 04:48:10 70° 101° (E) 04:56:02 435.910
MOZHAYETS 4 06 Mar 04:41:53 04:46:15 43° 263° (W) 04:50:38
YUBILEINY 06 Mar 04:47:14 04:54:33 29° 278° (W) 05:01:36 435.215
HORYU 2 06 Mar 04:58:54 05:02:39 27° 295° (WNW) 05:06:22 437.375
STRAND 1 06 Mar 05:05:10 05:09:15 25° 62° (ENE) 05:13:27 437.568
PCSat 06 Mar 05:06:09 05:11:36 78° 240° (WSW) 05:17:02 145.827
Cubesat XI-IV 06 Mar 05:10:17 05:12:21 12° 84° (E) 05:14:44 437.490
SO-50 06 Mar 05:12:11 05:12:49 10° 356° (N) 05:13:25 436.795
CUBESAT XI-V 06 Mar 05:13:27 05:17:47 38° 69° (ENE) 05:22:11 437.345
CUTE-I 06 Mar 05:17:40 05:20:26 15° 86° (E) 05:23:27 437.470
PRISM 06 Mar 06:05:50 06:09:58 61° 259° (WSW) 06:14:08 437.425
AIST 1 06 Mar 06:12:18 06:15:56 27° 90° (E) 06:19:42
AO-7 06 Mar 06:18:59 06:26:23 37° 304° (NW) 06:33:38 29.400- 29.500
JAS-2 06 Mar 06:26:24 06:32:46 31° 299° (WNW) 06:39:18 435.910
RS-15 06 Mar 06:40:32 06:51:44 62° 42° (NE) 07:03:29 29.354- 29.394
STRAND 1 06 Mar 06:43:10 06:48:11 52° 260° (W) 06:53:15 437.568
Cubesat XI-IV 06 Mar 06:48:00 06:53:25 84° 104° (ESE) 06:58:48 437.490
CUBESAT XI-V 06 Mar 06:51:19 06:55:22 27° 267° (W) 06:59:22 437.345
PCSat 06 Mar 06:51:53 06:54:15 13° 256° (WSW) 06:56:19 145.827
SO-50 06 Mar 06:52:52 06:55:28 14° 20° (NNE) 06:58:09 436.795
CUTE-I 06 Mar 06:55:56 07:01:20 85° 288° (WNW) 07:06:42 437.470
GONETS M04 06 Mar 07:02:48 07:09:35 25° 58° (ENE) 07:16:38
HO-68 06 Mar 07:43:50 07:48:28 19° 86° (E) 07:53:25 435.675
BRITE-PL 06 Mar 07:48:54 07:51:54 18° 88° (E) 07:54:55 437.365/2234.400
CUTE 1.7 + AOD 2 06 Mar 07:48:56 07:49:42 11° 85° (E) 07:50:45 437.475
AIST 1 06 Mar 07:49:36 07:53:33 32° 288° (WNW) 07:57:31
ISS 06 Mar 07:57:35 08:00:27 30° 143° (SE) 08:03:21 145.825
O/OREOS (USA 219) 06 Mar 08:12:03 08:15:53 27° 105° (ESE) 08:19:49 437.305
AO-7 06 Mar 08:14:29 08:16:53 11° 328° (NNW) 08:18:57 29.400- 29.500
AAUSAT CUBESAT 2 06 Mar 08:18:09 08:20:10 13° 87° (E) 08:22:21 437.432
COMPASS 1 06 Mar 08:23:02 08:25:49 17° 90° (E) 08:28:42 437.405
ANTELSAT 06 Mar 08:26:12 08:27:47 12° 59° (ENE) 08:29:33 437.575/2403.000
Cubesat XI-IV 06 Mar 08:29:24 08:32:55 18° 303° (WNW) 08:36:16 437.490
SO-50 06 Mar 08:32:38 08:37:19 42° 43° (NE) 08:42:01 436.795
CUTE-I 06 Mar 08:37:35 08:40:43 16° 304° (NW) 08:43:40 437.470
Oscar 11 06 Mar 08:38:04 08:39:03 11° 85° (E) 08:40:18 145.826/435.025
RS-15 06 Mar 08:53:16 09:04:06 50° 246° (WSW) 09:15:14 29.354- 29.394
SEEDS 06 Mar 08:54:59 08:59:02 43° 98° (E) 09:03:07 437.485
QB50P1 06 Mar 08:58:24 09:00:39 14° 61° (ENE) 09:03:02 145.935-145.965
GONETS M04 06 Mar 08:58:56 09:07:44 86° 264° (W) 09:16:33
QB50P2 06 Mar 09:03:11 09:05:46 16° 62° (ENE) 09:08:29 145.880/145.840
DELFI C3 06 Mar 09:03:50 09:06:16 16° 89° (E) 09:08:50 145.870
CANX-2 06 Mar 09:03:59 09:08:15 70° 102° (ESE) 09:12:31 2200.000
CUBEBUG 2 06 Mar 09:07:59 09:10:33 16° 89° (E) 09:13:14 437.445
DX 1 06 Mar 09:09:03 09:09:42 10° 85° (E) 09:10:37 434.975-435.025
CINEMA 3 06 Mar 09:11:03 09:14:43 29° 95° (E) 09:18:24 145.822/145.860
GOMX 1 06 Mar 09:12:26 09:16:50 83° 101° (ESE) 09:21:01 467.674
DUCHIFAT 1 06 Mar 09:14:26 09:17:29 20° 64° (ENE) 09:20:37 145.980
UNISAT 6 06 Mar 09:21:06 09:25:07 38° 69° (ENE) 09:29:07 437.425
CUTE 1.7 + AOD 2 06 Mar 09:22:03 09:26:20 83° 285° (WNW) 09:30:36 437.475
BRITE-PL 06 Mar 09:26:30 09:30:54 49° 289° (WNW) 09:35:01 437.365/2234.400
FUNcube-1 06 Mar 09:28:48 09:31:38 18° 91° (E) 09:34:36 145.935
DOVE 4 06 Mar 09:29:52 09:34:10 87° 102° (ESE) 09:38:19 437.250
HO-68 06 Mar 09:30:04 09:37:19 89° 107° (ESE) 09:44:32 435.675
ZACube-1 06 Mar 09:31:18 09:34:19 20° 91° (E) 09:37:26 437.345
UKube-1 06 Mar 09:32:01 09:34:55 18° 90° (E) 09:37:55 .
ISS 06 Mar 09:33:34 09:36:46 59° 341° (NNW) 09:39:58 145.825
POPSAT HIP 1 06 Mar 09:36:47 09:40:34 32° 68° (ENE) 09:44:24 437.405
POLYITAN 1 06 Mar 09:38:07 09:41:57 33° 68° (ENE) 09:45:49 437.675
CUSAT 1 06 Mar 09:42:19 09:43:43 13° 68° (ENE) 09:45:11 437.405
TIGRISAT 06 Mar 09:44:02 09:48:20 63° 73° (ENE) 09:52:36 435.000
O/OREOS (USA 219) 06 Mar 09:50:54 09:55:12 38° 304° (WNW) 09:59:31 437.305
AAUSAT CUBESAT 2 06 Mar 09:52:08 09:56:19 65° 286° (WNW) 10:00:28 437.432
COMPASS 1 06 Mar 09:57:46 10:01:51 49° 288° (WNW) 10:05:56 437.405
NANOSAT C BR1 06 Mar 09:58:03 10:02:11 51° 72° (ENE) 10:06:22 145.865
UWE-3 06 Mar 09:58:10 10:02:09 44° 98° (E) 10:06:11 435.000/436.395/437.385
ANTELSAT 06 Mar 09:59:40 10:04:02 88° 255° (WSW) 10:08:22 437.575/2403.000
50 SAT 06 Mar 09:59:49 10:01:53 14° 89° (E) 10:04:07 437.505
Oscar 11 06 Mar 10:11:35 10:15:57 84° 282° (WNW) 10:20:18 145.826/435.025
SO-50 06 Mar 10:13:20 10:17:52 36° 242° (WSW) 10:22:20 436.795
BUGSAT 1 06 Mar 10:22:35 10:26:50 70° 74° (ENE) 10:31:06 437.445
SEEDS 06 Mar 10:31:24 10:34:38 21° 295° (WNW) 10:37:47 437.485
QB50P1 06 Mar 10:31:47 10:36:04 72° 258° (WSW) 10:40:22 145.935-145.965
QB50P2 06 Mar 10:37:01 10:41:17 62° 259° (W) 10:45:32 145.880/145.840
DELFI C3 06 Mar 10:37:50 10:41:50 53° 288° (WNW) 10:45:49 145.870
HUMSAT D 06 Mar 10:40:31 10:44:34 55° 100° (E) 10:48:39 437.325/437.525
CANX-2 06 Mar 10:41:21 10:43:44 14° 299° (WNW) 10:45:58 2200.000
DX 1 06 Mar 10:42:18 10:46:42 88° 288° (WNW) 10:51:04 434.975-435.025
CUBEBUG 2 06 Mar 10:43:36 10:47:39 51° 288° (WNW) 10:51:42 437.445
CINEMA 3 06 Mar 10:48:22 10:51:56 27° 293° (WNW) 10:55:27 145.822/145.860
DUCHIFAT 1 06 Mar 10:48:54 10:53:03 48° 261° (W) 10:57:12 145.980
GOMX 1 06 Mar 10:52:30 10:54:21 12° 302° (WNW) 10:56:01 467.674
CUBEBUG 1 06 Mar 10:53:41 10:57:19 25° 93° (E) 11:00:59 437.445
Oscar 19 06 Mar 10:54:56 10:56:04 11° 53° (NE) 10:57:27 437.125/150
GONETS M04 06 Mar 10:57:27 11:03:27 20° 283° (WNW) 11:09:03
UNISAT 6 06 Mar 10:58:32 11:02:04 23° 267° (W) 11:05:30 437.425
CUTE 1.7 + AOD 2 06 Mar 11:00:31 11:01:38 11° 301° (WNW) 11:02:32 437.475
AISAT 06 Mar 11:02:43 11:07:10 67° 101° (ESE) 11:11:34 437.250
FUNcube-1 06 Mar 11:04:18 11:08:17 45° 289° (WNW) 11:12:17 145.935
ZACube-1 06 Mar 11:06:59 11:10:57 42° 289° (WNW) 11:14:53 437.345
UKube-1 06 Mar 11:07:11 11:11:26 52° 289° (WNW) 11:15:39 .
DOVE 4 06 Mar 11:09:51 11:11:20 11° 302° (WNW) 11:12:37 437.250
VELOX 1 06 Mar 11:10:25 11:14:54 78° 103° (ESE) 11:19:19 145.980
ISS 06 Mar 11:10:32 11:13:33 36° 1° (N) 11:16:36 145.825
POPSAT HIP 1 06 Mar 11:12:46 11:16:30 28° 266° (W) 11:20:11 437.405
SPROUT 06 Mar 11:13:15 11:14:03 11° 85° (E) 11:15:06 437.525
POLYITAN 1 06 Mar 11:14:16 11:17:57 26° 266° (W) 11:21:34 437.675
DANDE 06 Mar 11:16:46 11:19:08 28° 264° (W) 11:21:28 436.750
HO-68 06 Mar 11:18:49 11:24:17 23° 307° (NW) 11:29:33 435.675
TIGRISAT 06 Mar 11:23:08 11:25:35 14° 272° (W) 11:27:51 435.000
CUSAT 1 06 Mar 11:24:48 11:26:33 16° 266° (W) 11:28:17 437.405
50 SAT 06 Mar 11:33:25 11:37:18 54° 287° (WNW) 11:41:09 437.505
UWE-3 06 Mar 11:35:24 11:38:29 20° 296° (WNW) 11:41:29 435.000/436.395/437.385
NANOSAT C BR1 06 Mar 11:35:29 11:38:24 17° 270° (W) 11:41:13 145.865
ESTCUBE 1 06 Mar 11:40:08 11:44:43 79° 103° (ESE) 11:49:16 437.505/2401.250
Oscar 11 06 Mar 11:50:08 11:51:29 11° 302° (WNW) 11:52:38 145.826/435.025
BUGSAT 1 06 Mar 12:00:49 12:02:53 13° 273° (W) 12:04:45 437.445
HUMSAT D 06 Mar 12:17:21 12:20:00 17° 297° (WNW) 12:22:34 437.325/437.525
DX 1 06 Mar 12:20:36 12:22:21 12° 302° (WNW) 12:23:53 434.975-435.025
